Regional Weather Roundup
Issued by NWS

Home | Current Version | Previous Version | Text Only | Print | Product List | Glossary Off
Versions: 1 2 3 4 5 6 7 8 9 10 11 12 13 14 15 16 17 18 19 20 21 22 23 24 25 26 27 28 29 30 31 32 33 34 35 36 37 38 39 40 41 42 43 44 45 46 47 48 49 50

916
ASUS44 KLIX 301505
RWRLA
LOUISIANA WEATHER ROUNDUP
NATIONAL WEATHER SERVICE NEW ORLEANS LA
1000 AM CDT WED JUL 30 2014

NOTE: "FAIR" INDICATES FEW OR NO CLOUDS BELOW 12,000 FEET WITH NO
      SIGNIFICANT WEATHER AND/OR OBSTRUCTIONS TO VISIBILITY.
      SKY/WX - SKY CONDITION AND SIGNIFICANT WEATHER.
      TMP - AIR TEMPERATURE.    DP   - DEWPOINT TEMPERATURE.
      RH  - RELATIVE HUMIDITY.  PRES - PRESSURE.
      HX  - HEAT INDEX.         WCI  - WIND CHILL INDEX.

*  THESE STATIONS ARE NOT NWS OR FAA STATIONS AND ARE NOT UNDER
   NWS QUALITY CONTROL.

LAZ040-048-061>063-065-066-069-301600-
SOUTHEAST LOUISIANA

CITY           SKY/WX    TMP DP  RH WIND       PRES   REMARKS
N.O. AUDUBON     N/A     86  62  44 MISG        N/A
N.O. INTL ARPT MOSUNNY   83  61  47 NE9       30.07S
N.O. LAKEFRONT MOSUNNY   80  60  50 NE10      30.08S
N.O. DOWNTOWN* FAIR      81  57  44 N6        30.08R
SLIDELL        SUNNY     78  60  53 E7        30.08S
BATON ROUGE    SUNNY     77  62  59 NE8       30.10R
BOOTHVILLE     SUNNY     82  69  64 NE7       30.06S
BELLE CHASSE   MOSUNNY   81  66  60 NE9       30.07S
BOGALUSA*      FAIR      78  61  56 NE6       30.10F
GALLIANO*      NOT AVBL
NEW ROADS*     FAIR      77  63  61 CALM      30.10S
GONZALES*      FAIR      78  65  64 CALM      30.08S
HAMMOND*       SUNNY     79  57  47 E5        30.10S
HOUMA*         SUNNY     82  66  57 NE6       30.07S
PORT FOURCHON* SUNNY     82  72  69 NE8       30.08R

$$

LAZ041-044-053-054-301600-
SOUTHWEST LOUISIANA

CITY           SKY/WX    TMP DP  RH WIND       PRES   REMARKS
LAKE CHARLES   SUNNY     81  66  60 E10       30.08S
LAFAYETTE      SUNNY     79  66  64 VRB3      30.09S
PATTERSON      SUNNY     81  70  69 NE6       30.11S
SALT POINT       N/A     83  70  64 VRB5      30.07R
NEW IBERIA     SUNNY     82  68  62 NE7       30.09S
CHENAULT AIRPK NOT AVBL

$$

LAZ027-028-301600-
CENTRAL LOUISIANA

CITY           SKY/WX    TMP DP  RH WIND       PRES   REMARKS
FORT POLK      SUNNY     80  60  50 SE8       30.10S
ALEXANDRIA INT SUNNY     80  62  54 SE7       30.09S
ALEXANDRIA     SUNNY     80  64  58 E5        30.11S

$$

LAZ001-002-301600-
NORTHWEST LOUISIANA

CITY           SKY/WX    TMP DP  RH WIND       PRES   REMARKS
SHREVEPORT     PTSUNNY   80  62  54 SE9       30.10S
BARKSDALE AFB  MOSUNNY   79  62  56 SE10      30.11S
DTN SHREVEPORT MOSUNNY   80  62  54 SE10      30.11S

$$

LAZ014-016-301600-
NORTHEAST LOUISIANA

CITY           SKY/WX    TMP DP  RH WIND       PRES   REMARKS
MONROE         SUNNY     76  62  62 S3        30.12F
TALLULAH       SUNNY     77  58  51 SE6       30.12F

$$




USA.gov is the U.S. government's official web portal to all federal, state and local government web resources and services.